Select another period ( hide this area )

Units Period Custom range Directly to
Metric English Both
Daily Weekly Monthly Yearly
use both date-selectors for a custom range
previous Day
With this date

WeatherUnderground graphs for this period ( click here ) Loading the graph can take up to a minute!


Daily Summary for Monday Jan 18 2021
Time Temp. ( °C ) Dew pt. ( °C ) Wind ( km/h ) From Gust ( km/h ) Pressure ( hPa ) Humid.( % ) Rainrate ( cm )
High6,7 4,5 6,0 NW ( 35/117 ) 10,0 1026,4 95 -
Average4,2 2,9 0,6 Kalm #130/182 3,3 1025,2 91 -
Low2,3 1,6 -   0,0 1023,0 85 -
Daily Tabular details for Monday Jan 18 2021
Time Temp. ( °C ) Dew pt. ( °C ) Wind ( km/h ) From Gust ( km/h ) Pressure ( hPa ) Humid.( % ) Rainrate ( cm )
00:03 5,0 3,2 1,0 NW 2,0 1026,1 88 -
00:08 4,9 3,1   Kalm 2,0 1026,1 88 -
00:13 4,8 3,1 1,0 NW 2,0 1026,1 89 -
00:18 4,8 3,1   Kalm 3,0 1026,1 89 -
00:23 4,7 3,0   Kalm 2,0 1026,1 89 -
00:28 4,7 3,2   Kalm 3,0 1026,1 90 -
00:33 4,7 3,2 3,0 NW 3,0 1026,1 90 -
00:38 4,7 3,2   Kalm 5,0 1026,4 90 -
00:43 4,8 3,3   Kalm 2,0 1026,1 90 -
00:48 4,8 3,3   Kalm 2,0 1026,4 90 -
00:53 4,8 3,3   Kalm 3,0 1026,4 90 -
00:58 4,8 3,3   Kalm 5,0 1026,4 90 -
01:03 4,8 3,3   Kalm 5,0 1026,4 90 -
01:08 4,8 3,3   Kalm 2,0 1026,4 90 -
01:13 4,8 3,3 1,0 NW 3,0 1026,4 90 -
01:18 4,8 3,3   Kalm 2,0 1026,4 90 -
01:23 4,8 3,3   Kalm   1026,4 90 -
01:28 4,8 3,3   Kalm   1026,1 90 -
01:33 4,8 3,3   Kalm 2,0 1026,1 90 -
01:38 4,8 3,5   Kalm   1026,1 91 -
01:43 4,8 3,3   Kalm 2,0 1026,1 90 -
01:48 4,7 3,4 1,0 NW 2,0 1026,1 91 -
01:53 4,7 3,4   Kalm   1026,1 91 -
01:58 4,7 3,4   Kalm 3,0 1026,1 91 -
02:03 4,7 3,4   Kalm 5,0 1025,7 91 -
02:08 4,7 3,4 1,0 NW 5,0 1025,7 91 -
02:13 4,7 3,4   Kalm 6,0 1025,7 91 -
02:18 4,6 3,3   Kalm 2,0 1025,7 91 -
02:23 4,6 3,3 1,0 NW 3,0 1025,7 91 -
02:28 4,5 3,2   Kalm 6,0 1025,7 91 -
02:33 4,4 3,1 1,0 NW 5,0 1025,7 91 -
02:38 4,3 3,0   Kalm 2,0 1025,7 91 -
02:43 4,3 3,0   Kalm 5,0 1025,7 91 -
02:48 4,2 3,0   Kalm 3,0 1025,7 92 -
02:53 4,2 3,0 1,0 NW 3,0 1025,7 92 -
02:58 4,1 2,9   Kalm 2,0 1025,7 92 -
03:03 4,1 2,9   Kalm 2,0 1025,7 92 -
03:08 4,0 2,8   Kalm 6,0 1025,7 92 -
03:13 4,0 2,8   Kalm 5,0 1025,7 92 -
03:18 3,9 2,7   Kalm   1025,7 92 -
03:23 3,9 2,7 3,0 NW 3,0 1025,7 92 -
03:28 3,9 2,9   Kalm 2,0 1025,7 93 -
03:33 3,8 2,8   Kalm   1025,7 93 -
03:38 3,8 2,8   Kalm 5,0 1025,7 93 -
03:43 3,8 2,8   Kalm 2,0 1025,7 93 -
03:48 3,8 2,8   Kalm 2,0 1025,7 93 -
03:53 3,8 2,8   Kalm 2,0 1025,7 93 -
03:58 3,7 2,7   Kalm   1025,7 93 -
04:03 3,7 2,7   Kalm 2,0 1025,7 93 -
04:08 3,6 2,6   Kalm   1025,7 93 -
04:13 3,6 2,6   Kalm   1025,7 93 -
04:18 3,5 2,5   Kalm   1025,7 93 -
04:23 3,4 2,5   Kalm 2,0 1025,7 94 -
04:28 3,4 2,5   Kalm 2,0 1025,7 94 -
04:33 3,4 2,5   Kalm 2,0 1025,7 94 -
04:38 3,4 2,5   Kalm   1025,7 94 -
04:43 3,3 2,4   Kalm 3,0 1025,7 94 -
04:48 3,3 2,4   Kalm   1025,7 94 -
04:53 3,3 2,4   Kalm   1025,7 94 -
04:58 3,2 2,3   Kalm   1025,7 94 -
05:03 3,2 2,3   Kalm   1025,7 94 -
05:08 3,1 2,2   Kalm 2,0 1025,7 94 -
05:13 3,1 2,2   Kalm 2,0 1025,7 94 -
05:18 3,1 2,2   Kalm   1025,7 94 -
05:23 3,1 2,2   Kalm 2,0 1025,7 94 -
05:28 2,9 2,0   Kalm 3,0 1025,4 94 -
05:33 2,9 2,0   Kalm 2,0 1025,4 94 -
05:38 2,8 1,9   Kalm 3,0 1025,4 94 -
05:43 2,8 1,9   Kalm   1025,4 94 -
05:48 2,8 1,9   Kalm 2,0 1025,4 94 -
05:53 2,8 2,1   Kalm 2,0 1025,4 95 -
05:58 2,7 2,0   Kalm 2,0 1025,7 95 -
06:03 2,7 2,0   Kalm 2,0 1025,4 95 -
06:08 2,7 2,0   Kalm 5,0 1025,4 95 -
06:13 2,6 1,9   Kalm 3,0 1025,4 95 -
06:18 2,6 1,9   Kalm 3,0 1025,4 95 -
06:23 2,6 1,9   Kalm   1025,4 95 -
06:28 2,5 1,8   Kalm 3,0 1025,1 95 -
06:33 2,4 1,7   Kalm   1025,1 95 -
06:38 2,4 1,7   Kalm 2,0 1025,1 95 -
06:43 2,4 1,7   Kalm   1025,4 95 -
06:48 2,4 1,7   Kalm   1025,4 95 -
06:53 2,4 1,7   Kalm   1025,1 95 -
06:58 2,4 1,7   Kalm 2,0 1025,1 95 -
07:03 2,4 1,7   Kalm 2,0 1025,1 95 -
07:08 2,4 1,7   Kalm 3,0 1025,1 95 -
07:13 2,3 1,6   Kalm   1025,4 95 -
07:18 2,3 1,6   Kalm 2,0 1025,4 95 -
07:23 2,4 1,7   Kalm 2,0 1025,1 95 -
07:28 2,4 1,7   Kalm 2,0 1025,1 95 -
07:33 2,4 1,7   Kalm 2,0 1025,1 95 -
07:38 2,5 1,8 1,0 ESE 2,0 1025,1 95 -
07:43 2,5 1,8   Kalm 2,0 1025,1 95 -
07:48 2,5 1,8   Kalm 3,0 1025,1 95 -
07:53 2,6 1,9   Kalm   1025,1 95 -
07:58 2,5 1,8   Kalm   1025,1 95 -
08:03 2,5 1,8 3,0 SE 6,0 1025,1 95 -
08:08 2,6 1,9   Kalm 2,0 1025,4 95 -
08:13 2,6 1,9 1,0 East 6,0 1025,4 95 -
08:18 2,6 1,9   Kalm 2,0 1025,1 95 -
08:23 2,6 1,9 1,0 ENE 3,0 1025,1 95 -
08:28 2,6 1,9   Kalm 2,0 1025,1 95 -
08:33 2,7 2,0   Kalm 3,0 1025,1 95 -
08:38 2,7 2,0   Kalm 2,0 1025,1 95 -
08:43 2,7 2,0   Kalm 5,0 1025,1 95 -
08:48 2,7 2,0   Kalm 2,0 1025,1 95 -
08:53 2,7 1,8   Kalm 5,0 1025,1 94 -
08:58 2,7 1,8   Kalm 3,0 1025,1 94 -
09:03 2,8 1,9   Kalm 2,0 1025,1 94 -
09:08 2,8 1,9 3,0 SE 5,0 1025,1 94 -
09:13 2,8 1,9 1,0 ESE 5,0 1025,1 94 -
09:18 2,8 1,9 3,0 ESE 6,0 1025,1 94 -
09:23 2,9 2,0 1,0 SE 5,0 1025,1 94 -
09:28 2,9 2,0   Kalm 3,0 1025,1 94 -
09:33 3,0 2,1 3,0 SE 3,0 1025,1 94 -
09:38 3,1 2,2 1,0 SE 6,0 1025,1 94 -
09:43 3,1 2,2 1,0 ESE 5,0 1025,4 94 -
09:48 3,1 2,2   Kalm 6,0 1025,4 94 -
09:53 3,2 2,3 1,0 ESE 2,0 1025,4 94 -
09:58 3,2 2,3   Kalm 3,0 1025,4 94 -
10:03 3,3 2,4 1,0 SE 3,0 1025,4 94 -
10:08 3,3 2,4   Kalm 3,0 1025,4 94 -
10:13 3,4 2,5   Kalm 6,0 1025,4 94 -
10:18 3,6 2,7   Kalm 3,0 1025,4 94 -
10:23 3,7 2,7 5,0 ESE 8,0 1025,4 93 -
10:28 3,7 2,7 1,0 NNW 3,0 1025,4 93 -
10:33 3,8 2,8   Kalm 2,0 1025,4 93 -
10:38 3,8 2,8 5,0 SE 5,0 1025,4 93 -
10:43 3,9 2,9   Kalm 3,0 1025,4 93 -
10:48 4,1 3,1 3,0 NW 3,0 1025,4 93 -
10:53 4,2 3,2   Kalm 2,0 1025,4 93 -
10:58 4,4 3,4   Kalm 6,0 1025,4 93 -
11:03 4,6 3,4   Kalm 2,0 1025,4 92 -
11:08 4,7 3,5   Kalm 2,0 1025,4 92 -
11:13 4,8 3,5 1,0 NW 3,0 1025,4 91 -
11:18 4,9 3,6   Kalm 6,0 1025,4 91 -
11:23 5,0 3,7 1,0 SW 3,0 1025,4 91 -
11:28 5,1 3,8   Kalm 3,0 1025,4 91 -
11:33 5,2 3,7   Kalm 5,0 1025,4 90 -
11:38 5,3 3,8 1,0 NW 3,0 1025,1 90 -
11:43 5,3 3,8 5,0 ESE 5,0 1025,1 90 -
11:48 5,4 3,9   Kalm 5,0 1025,1 90 -
11:53 5,4 3,7   Kalm 10,0 1025,1 89 -
11:58 5,5 3,8 1,0 NNW 6,0 1025,1 89 -
12:03 5,6 3,9 3,0 East 5,0 1025,1 89 -
12:08 5,7 4,0   Kalm 6,0 1025,1 89 -
12:13 5,8 4,0   Kalm 5,0 1025,1 88 -
12:18 5,8 4,0   Kalm 3,0 1024,7 88 -
12:23 5,9 3,9 1,0 NW 6,0 1024,7 87 -
12:28 5,9 3,9   Kalm 6,0 1024,7 87 -
12:33 6,0 4,0   Kalm 3,0 1024,7 87 -
12:38 6,1 4,1   Kalm 5,0 1024,7 87 -
12:43 6,1 4,1 1,0 SE 5,0 1024,7 87 -
12:48 6,1 4,1 1,0 SE 3,0 1024,4 87 -
12:53 6,2 4,2 3,0 East 3,0 1024,4 87 -
12:58 6,3 4,3   Kalm 5,0 1024,4 87 -
13:03 6,4 4,2   Kalm 3,0 1024,0 86 -
13:08 6,5 4,3   Kalm 6,0 1024,0 86 -
13:13 6,6 4,4 6,0 ESE 10,0 1024,0 86 -
13:19 6,5 4,2 6,0 WSW 6,0 1024,0 85 -
13:24 6,4 4,1 1,0 SSE 6,0 1024,0 85 -
13:29 6,4 4,1 6,0 NNW 6,0 1024,0 85 -
13:34 6,4 4,2   Kalm 6,0 1024,0 86 -
13:39 6,4 4,2 6,0 NW 8,0 1023,7 86 -
13:44 6,4 4,2 6,0 WSW 6,0 1023,7 86 -
13:49 6,4 4,2 1,0 ESE 10,0 1023,7 86 -
13:54 6,4 4,2   Kalm 2,0 1023,7 86 -
13:59 6,4 4,2   Kalm 10,0 1023,7 86 -
14:04 6,4 4,2   Kalm 3,0 1023,7 86 -
14:09 6,5 4,3   Kalm 6,0 1023,4 86 -
14:14 6,6 4,4   Kalm 3,0 1023,4 86 -
14:19 6,6 4,3 3,0 NW 6,0 1023,7 85 -
14:24 6,6 4,3 1,0 WNW 5,0 1023,4 85 -
14:29 6,7 4,4 1,0 NNW 3,0 1023,4 85 -
14:34 6,7 4,4 5,0 NW 5,0 1023,4 85 -
14:39 6,7 4,4 3,0 ESE 6,0 1023,4 85 -
14:44 6,7 4,4 1,0 NW 6,0 1023,0 85 -
14:49 6,7 4,5 3,0 WNW 3,0 1023,0 86 -
14:54 6,7 4,5   Kalm 2,0 1023,0 86 -
14:59 6,7 4,4 1,0 WNW 10,0 1023,0 85 -
15:04 6,7 4,4   Kalm 5,0 1023,0 85 -
15:09 6,7 4,5   Kalm 5,0 1023,0 86 -
Daily Summary for Monday Jan 18 2021
Time Temp. ( °C ) Dew pt. ( °C ) Wind ( km/h ) From Gust ( km/h ) Pressure ( hPa ) Humid.( % ) Rainrate ( cm )
High6,7 4,5 6,0 NW ( 35/117 ) 10,0 1026,4 95 -
Average4,2 2,9 0,6 Kalm #130/182 3,3 1025,2 91 -
Low2,3 1,6 -   0,0 1023,0 85 -
Daily Tabular details for Monday Jan 18 2021
Time Temp. ( °C ) Dew pt. ( °C ) Wind ( km/h ) From Gust ( km/h ) Pressure ( hPa ) Humid.( % ) Rainrate ( cm )
00:03 5,0 3,2 1,0 NW 2,0 1026,1 88 -
00:08 4,9 3,1   Kalm 2,0 1026,1 88 -
00:13 4,8 3,1 1,0 NW 2,0 1026,1 89 -
00:18 4,8 3,1   Kalm 3,0 1026,1 89 -
00:23 4,7 3,0   Kalm 2,0 1026,1 89 -
00:28 4,7 3,2   Kalm 3,0 1026,1 90 -
00:33 4,7 3,2 3,0 NW 3,0 1026,1 90 -
00:38 4,7 3,2   Kalm 5,0 1026,4 90 -
00:43 4,8 3,3   Kalm 2,0 1026,1 90 -
00:48 4,8 3,3   Kalm 2,0 1026,4 90 -
00:53 4,8 3,3   Kalm 3,0 1026,4 90 -
00:58 4,8 3,3   Kalm 5,0 1026,4 90 -
01:03 4,8 3,3   Kalm 5,0 1026,4 90 -
01:08 4,8 3,3   Kalm 2,0 1026,4 90 -
01:13 4,8 3,3 1,0 NW 3,0 1026,4 90 -
01:18 4,8 3,3   Kalm 2,0 1026,4 90 -
01:23 4,8 3,3   Kalm   1026,4 90 -
01:28 4,8 3,3   Kalm   1026,1 90 -
01:33 4,8 3,3   Kalm 2,0 1026,1 90 -
01:38 4,8 3,5   Kalm   1026,1 91 -
01:43 4,8 3,3   Kalm 2,0 1026,1 90 -
01:48 4,7 3,4 1,0 NW 2,0 1026,1 91 -
01:53 4,7 3,4   Kalm   1026,1 91 -
01:58 4,7 3,4   Kalm 3,0 1026,1 91 -
02:03 4,7 3,4   Kalm 5,0 1025,7 91 -
02:08 4,7 3,4 1,0 NW 5,0 1025,7 91 -
02:13 4,7 3,4   Kalm 6,0 1025,7 91 -
02:18 4,6 3,3   Kalm 2,0 1025,7 91 -
02:23 4,6 3,3 1,0 NW 3,0 1025,7 91 -
02:28 4,5 3,2   Kalm 6,0 1025,7 91 -
02:33 4,4 3,1 1,0 NW 5,0 1025,7 91 -
02:38 4,3 3,0   Kalm 2,0 1025,7 91 -
02:43 4,3 3,0   Kalm 5,0 1025,7 91 -
02:48 4,2 3,0   Kalm 3,0 1025,7 92 -
02:53 4,2 3,0 1,0 NW 3,0 1025,7 92 -
02:58 4,1 2,9   Kalm 2,0 1025,7 92 -
03:03 4,1 2,9   Kalm 2,0 1025,7 92 -
03:08 4,0 2,8   Kalm 6,0 1025,7 92 -
03:13 4,0 2,8   Kalm 5,0 1025,7 92 -
03:18 3,9 2,7   Kalm   1025,7 92 -
03:23 3,9 2,7 3,0 NW 3,0 1025,7 92 -
03:28 3,9 2,9   Kalm 2,0 1025,7 93 -
03:33 3,8 2,8   Kalm   1025,7 93 -
03:38 3,8 2,8   Kalm 5,0 1025,7 93 -
03:43 3,8 2,8   Kalm 2,0 1025,7 93 -
03:48 3,8 2,8   Kalm 2,0 1025,7 93 -
03:53 3,8 2,8   Kalm 2,0 1025,7 93 -
03:58 3,7 2,7   Kalm   1025,7 93 -
04:03 3,7 2,7   Kalm 2,0 1025,7 93 -
04:08 3,6 2,6   Kalm   1025,7 93 -
04:13 3,6 2,6   Kalm   1025,7 93 -
04:18 3,5 2,5   Kalm   1025,7 93 -
04:23 3,4 2,5   Kalm 2,0 1025,7 94 -
04:28 3,4 2,5   Kalm 2,0 1025,7 94 -
04:33 3,4 2,5   Kalm 2,0 1025,7 94 -
04:38 3,4 2,5   Kalm   1025,7 94 -
04:43 3,3 2,4   Kalm 3,0 1025,7 94 -
04:48 3,3 2,4   Kalm   1025,7 94 -
04:53 3,3 2,4   Kalm   1025,7 94 -
04:58 3,2 2,3   Kalm   1025,7 94 -
05:03 3,2 2,3   Kalm   1025,7 94 -
05:08 3,1 2,2   Kalm 2,0 1025,7 94 -
05:13 3,1 2,2   Kalm 2,0 1025,7 94 -
05:18 3,1 2,2   Kalm   1025,7 94 -
05:23 3,1 2,2   Kalm 2,0 1025,7 94 -
05:28 2,9 2,0   Kalm 3,0 1025,4 94 -
05:33 2,9 2,0   Kalm 2,0 1025,4 94 -
05:38 2,8 1,9   Kalm 3,0 1025,4 94 -
05:43 2,8 1,9   Kalm   1025,4 94 -
05:48 2,8 1,9   Kalm 2,0 1025,4 94 -
05:53 2,8 2,1   Kalm 2,0 1025,4 95 -
05:58 2,7 2,0   Kalm 2,0 1025,7 95 -
06:03 2,7 2,0   Kalm 2,0 1025,4 95 -
06:08 2,7 2,0   Kalm 5,0 1025,4 95 -
06:13 2,6 1,9   Kalm 3,0 1025,4 95 -
06:18 2,6 1,9   Kalm 3,0 1025,4 95 -
06:23 2,6 1,9   Kalm   1025,4 95 -
06:28 2,5 1,8   Kalm 3,0 1025,1 95 -
06:33 2,4 1,7   Kalm   1025,1 95 -
06:38 2,4 1,7   Kalm 2,0 1025,1 95 -
06:43 2,4 1,7   Kalm   1025,4 95 -
06:48 2,4 1,7   Kalm   1025,4 95 -
06:53 2,4 1,7   Kalm   1025,1 95 -
06:58 2,4 1,7   Kalm 2,0 1025,1 95 -
07:03 2,4 1,7   Kalm 2,0 1025,1 95 -
07:08 2,4 1,7   Kalm 3,0 1025,1 95 -
07:13 2,3 1,6   Kalm   1025,4 95 -
07:18 2,3 1,6   Kalm 2,0 1025,4 95 -
07:23 2,4 1,7   Kalm 2,0 1025,1 95 -
07:28 2,4 1,7   Kalm 2,0 1025,1 95 -
07:33 2,4 1,7   Kalm 2,0 1025,1 95 -
07:38 2,5 1,8 1,0 ESE 2,0 1025,1 95 -
07:43 2,5 1,8   Kalm 2,0 1025,1 95 -
07:48 2,5 1,8   Kalm 3,0 1025,1 95 -
07:53 2,6 1,9   Kalm   1025,1 95 -
07:58 2,5 1,8   Kalm   1025,1 95 -
08:03 2,5 1,8 3,0 SE 6,0 1025,1 95 -
08:08 2,6 1,9   Kalm 2,0 1025,4 95 -
08:13 2,6 1,9 1,0 East 6,0 1025,4 95 -
08:18 2,6 1,9   Kalm 2,0 1025,1 95 -
08:23 2,6 1,9 1,0 ENE 3,0 1025,1 95 -
08:28 2,6 1,9   Kalm 2,0 1025,1 95 -
08:33 2,7 2,0   Kalm 3,0 1025,1 95 -
08:38 2,7 2,0   Kalm 2,0 1025,1 95 -
08:43 2,7 2,0   Kalm 5,0 1025,1 95 -
08:48 2,7 2,0   Kalm 2,0 1025,1 95 -
08:53 2,7 1,8   Kalm 5,0 1025,1 94 -
08:58 2,7 1,8   Kalm 3,0 1025,1 94 -
09:03 2,8 1,9   Kalm 2,0 1025,1 94 -
09:08 2,8 1,9 3,0 SE 5,0 1025,1 94 -
09:13 2,8 1,9 1,0 ESE 5,0 1025,1 94 -
09:18 2,8 1,9 3,0 ESE 6,0 1025,1 94 -
09:23 2,9 2,0 1,0 SE 5,0 1025,1 94 -
09:28 2,9 2,0   Kalm 3,0 1025,1 94 -
09:33 3,0 2,1 3,0 SE 3,0 1025,1 94 -
09:38 3,1 2,2 1,0 SE 6,0 1025,1 94 -
09:43 3,1 2,2 1,0 ESE 5,0 1025,4 94 -
09:48 3,1 2,2   Kalm 6,0 1025,4 94 -
09:53 3,2 2,3 1,0 ESE 2,0 1025,4 94 -
09:58 3,2 2,3   Kalm 3,0 1025,4 94 -
10:03 3,3 2,4 1,0 SE 3,0 1025,4 94 -
10:08 3,3 2,4   Kalm 3,0 1025,4 94 -
10:13 3,4 2,5   Kalm 6,0 1025,4 94 -
10:18 3,6 2,7   Kalm 3,0 1025,4 94 -
10:23 3,7 2,7 5,0 ESE 8,0 1025,4 93 -
10:28 3,7 2,7 1,0 NNW 3,0 1025,4 93 -
10:33 3,8 2,8   Kalm 2,0 1025,4 93 -
10:38 3,8 2,8 5,0 SE 5,0 1025,4 93 -
10:43 3,9 2,9   Kalm 3,0 1025,4 93 -
10:48 4,1 3,1 3,0 NW 3,0 1025,4 93 -
10:53 4,2 3,2   Kalm 2,0 1025,4 93 -
10:58 4,4 3,4   Kalm 6,0 1025,4 93 -
11:03 4,6 3,4   Kalm 2,0 1025,4 92 -
11:08 4,7 3,5   Kalm 2,0 1025,4 92 -
11:13 4,8 3,5 1,0 NW 3,0 1025,4 91 -
11:18 4,9 3,6   Kalm 6,0 1025,4 91 -
11:23 5,0 3,7 1,0 SW 3,0 1025,4 91 -
11:28 5,1 3,8   Kalm 3,0 1025,4 91 -
11:33 5,2 3,7   Kalm 5,0 1025,4 90 -
11:38 5,3 3,8 1,0 NW 3,0 1025,1 90 -
11:43 5,3 3,8 5,0 ESE 5,0 1025,1 90 -
11:48 5,4 3,9   Kalm 5,0 1025,1 90 -
11:53 5,4 3,7   Kalm 10,0 1025,1 89 -
11:58 5,5 3,8 1,0 NNW 6,0 1025,1 89 -
12:03 5,6 3,9 3,0 East 5,0 1025,1 89 -
12:08 5,7 4,0   Kalm 6,0 1025,1 89 -
12:13 5,8 4,0   Kalm 5,0 1025,1 88 -
12:18 5,8 4,0   Kalm 3,0 1024,7 88 -
12:23 5,9 3,9 1,0 NW 6,0 1024,7 87 -
12:28 5,9 3,9   Kalm 6,0 1024,7 87 -
12:33 6,0 4,0   Kalm 3,0 1024,7 87 -
12:38 6,1 4,1   Kalm 5,0 1024,7 87 -
12:43 6,1 4,1 1,0 SE 5,0 1024,7 87 -
12:48 6,1 4,1 1,0 SE 3,0 1024,4 87 -
12:53 6,2 4,2 3,0 East 3,0 1024,4 87 -
12:58 6,3 4,3   Kalm 5,0 1024,4 87 -
13:03 6,4 4,2   Kalm 3,0 1024,0 86 -
13:08 6,5 4,3   Kalm 6,0 1024,0 86 -
13:13 6,6 4,4 6,0 ESE 10,0 1024,0 86 -
13:19 6,5 4,2 6,0 WSW 6,0 1024,0 85 -
13:24 6,4 4,1 1,0 SSE 6,0 1024,0 85 -
13:29 6,4 4,1 6,0 NNW 6,0 1024,0 85 -
13:34 6,4 4,2   Kalm 6,0 1024,0 86 -
13:39 6,4 4,2 6,0 NW 8,0 1023,7 86 -
13:44 6,4 4,2 6,0 WSW 6,0 1023,7 86 -
13:49 6,4 4,2 1,0 ESE 10,0 1023,7 86 -
13:54 6,4 4,2   Kalm 2,0 1023,7 86 -
13:59 6,4 4,2   Kalm 10,0 1023,7 86 -
14:04 6,4 4,2   Kalm 3,0 1023,7 86 -
14:09 6,5 4,3   Kalm 6,0 1023,4 86 -
14:14 6,6 4,4   Kalm 3,0 1023,4 86 -
14:19 6,6 4,3 3,0 NW 6,0 1023,7 85 -
14:24 6,6 4,3 1,0 WNW 5,0 1023,4 85 -
14:29 6,7 4,4 1,0 NNW 3,0 1023,4 85 -
14:34 6,7 4,4 5,0 NW 5,0 1023,4 85 -
14:39 6,7 4,4 3,0 ESE 6,0 1023,4 85 -
14:44 6,7 4,4 1,0 NW 6,0 1023,0 85 -
14:49 6,7 4,5 3,0 WNW 3,0 1023,0 86 -
14:54 6,7 4,5   Kalm 2,0 1023,0 86 -
14:59 6,7 4,4 1,0 WNW 10,0 1023,0 85 -
15:04 6,7 4,4   Kalm 5,0 1023,0 85 -
15:09 6,7 4,5   Kalm 5,0 1023,0 86 -

Download your copy of this data-set  from WeatherUnderground

Our weather-data as stored at Weather Underground. Original script b Jim McMurry. Rewritten for template use Leuven-Template